Regional Weather Roundup
Issued by NWS

Home | Current Version | Previous Version | Graphics & Text | Print | Product List | Glossary On
Versions: 1 2 3 4 5 6 7 8 9 10 11 12 13 14 15 16 17 18 19 20 21 22 23 24 25 26 27 28 29 30 31 32 33 34 35 36 37 38 39 40 41 42 43 44 45 46 47 48 49 50
657
ASUS43 KIND 230109
RWRIN

WEATHER ROUNDUP FOR INDIANA
NATIONAL WEATHER SERVICE INDIANAPOLIS IN
900 PM EDT SUN OCT 22 2017

NOTE: "FAIR" INDICATES FEW OR NO CLOUDS BELOW 12,000 FEET WITH NO
SIGNIFICANT WEATHER AND/OR OBSTRUCTIONS TO VISIBILITY.

* - STATION DOES NOT REPORT WEATHER SUCH AS PRECIPITATION OR FOG.

+ - STATION NOT QUALITY CONTROLLED BY THE NATIONAL WEATHER SERVICE.
    USE DATA WITH CAUTION...ESPECIALLY DEWPOINT AND RELATIVE
    HUMIDITY OBSERVATIONS.

INZ001>003-010>013-019-020-230200-
NORTHWEST INDIANA

CITY           SKY/WX    TMP DP  RH WIND       PRES   REMARKS
GARY /AIRPORT/ LGT RAIN  55  52  88 N14       30.05S
KNOX *+        CLOUDY    55  54  94 N7        30.02R
LA PORTE +     CLOUDY    55  54  96 NW8       30.02S
MICHIGAN CITY+ DRIZZLE   54  54 100 N7        30.03F
MONTICELLO +   CLOUDY    64  62  95 NW6       29.99S
RENSSELAER +   CLOUDY    54  50  87 N9        30.01S
VALPARAISO     CLOUDY    55  53  93 N12       30.02F

$$

LMZ046-743>745-230200-
SOUTHERN LAKE MICHIGAN

STATION/POSITION TIME  TEMP    WIND        PRES    WAVE
                       AIR SEA DIR/SP/G            HT
                 (UTC) (F)     (DEG/KT/KT) (MB)    (FT)
BURNS HARBOR     0040   54     360/ 14/ 18 1017.6S
MICHIGAN CITY    0040   55     350/ 16/ 18   N/A
5NW MICH CITY    0100   55 58  350/ 14/ 17   N/A     7

$$

INZ004-005-014>016-021>024-230200-
NORTH CENTRAL INDIANA

CITY           SKY/WX    TMP DP  RH WIND       PRES   REMARKS
GOSHEN         CLOUDY    72  56  57 S13       29.99S
LOGANSPORT +   CLOUDY    70  57  64 S12       29.99F
PERU/GRISSOM   CLOUDY    71  57  61 S14       29.99S
SOUTH BEND     CLOUDY    59  59 100 NW7       30.02R
WARSAW +       CLOUDY    70  57  64 S7        30.00S

$$

INZ006>009-017-018-025>027-230200-
NORTHEAST INDIANA

CITY           SKY/WX    TMP DP  RH WIND       PRES   REMARKS
AUBURN +       CLOUDY    70  54  56 S5        30.03S
FORT WAYNE     CLOUDY    70  54  56 S16       30.03S
HUNTINGTON +   MOCLDY    69  55  62 S7        30.02S
KENDALLVILLE + CLOUDY    71  56  59 S9        30.02S

$$

INZ028-029-035-036-043>045-051>053-230200-
WEST CENTRAL INDIANA

CITY           SKY/WX    TMP DP  RH WIND       PRES   REMARKS
CRAWFORDSVL +  CLOUDY    66  57  72 SE8       29.98
GREENCASTLE +  CLOUDY    70  55  60 SE9       30.00S
LAFAYETTE      CLOUDY    64  62  93 NW6       29.99R
TERRE HAUTE    CLOUDY    71  58  63 SE7       29.96F

$$

INZ030>032-037>040-046>048-054>057-064-065-230200-
CENTRAL INDIANA

CITY           SKY/WX    TMP DP  RH WIND       PRES   REMARKS
CP ATTERBURY + CLOUDY    66  55  68 SE3       30.02F
COLUMBUS       MOCLDY    66  50  55 SE7       30.03F
FISHERS *+     CLOUDY    68  59  73 SE10G16   30.02
FRANKFORT +    CLOUDY    71  59  65 S6        30.01F
GREENWOOD *+   CLOUDY    72  57  60 SE8       30.03S
INDIANAPOLIS   CLOUDY    70  56  61 SE13      30.01F
-EAGLE CREEK   CLOUDY    71  55  56 SE9       30.00F
KOKOMO +       CLOUDY    70  57  63 S14       30.02S
MT COMFORT *+  CLOUDY    66  59  77 SE7       30.03F
SHELBYVILLE    CLOUDY    69  53  56 SE10      30.02F
ZIONSVILLE +   CLOUDY    69  56  65 SE10      30.02F

$$

INZ033-034-041-042-049-050-058-059-230200-
EAST CENTRAL INDIANA

CITY           SKY/WX    TMP DP  RH WIND       PRES   REMARKS
MUNCIE         CLOUDY    70  53  54 S9        30.04S
RICHMOND +     CLOUDY    63  50  63 SE10      30.08F

$$

INZ060-061-067>069-081>083-085>088-230200-
SOUTHWEST INDIANA

CITY           SKY/WX    TMP DP  RH WIND       PRES   REMARKS
EVANSVILLE     LGT RAIN  72  60  66 SE7       29.96S
HUNTINGBURG +  CLOUDY    72  60  66 SE12      29.98S
WASHINGTON +   CLOUDY    71  56  58 SE9       29.96F

$$

INZ062-063-066-070>080-084-089>092-230200-
SOUTH CENTRAL AND SOUTHEAST INDIANA

CITY           SKY/WX    TMP DP  RH WIND       PRES   REMARKS
BEDFORD +      CLOUDY    70  55  60 SE6       30.00
BLOOMINGTON    CLOUDY    71  56  58 SE9       30.00F
MADISON *+     PTCLDY    68  52  56 SE5       30.06F
NORTH VERNON + MOCLDY    66  54  63 SE7       30.04F
SEYMOUR +      MOCLDY    70  54  56 SE7       30.02F

$$





USA.gov is the U.S. government's official web portal to all federal, state and local government web resources and services.